Presure
176 266 198 249 254 211 233 229 195 229 218 202 185 199 193 191 183 184 197 160 197 194 195 191 199 194 191 204 196 194 204 222 229 208 193 189 214 222 230 234 232 253 246
297 276 240 257 244 242 244 248 243 231 233 198 194 183 185 192 190 170 183 190 193 192 192 201 192 210 176 197 186 211 201 218 198 208 202 213 216 228 227 222 246 263 246
169 209 272 255 247 245 228 241 226 213 183 217 192 181 194 177 189 179 183 189 190 188 196 184 197 205 212 197 196 197 200 201 218 220 224 232 229 236 239 246 250 254 268
243 254 259 255 244 238 228 244 205 208 205 186 194 181 182 195 187 189 182 190 182 205 199 202 173 194 193 201 198 198 205 215 207 212 217 222 231 233 239 236 263 251 259
245 248 231 251 243 234 215 213 227 211 206 189 211 186 200 197 182 178 187 181 186 182 205 186 185 192 198 177 196 217 224 208 209 214 228 231 228 236 226 238 247 251 275
232 235 229 230 228 225 207 216 224 223 207 194 190 196 187 193 188 194 208 188 199 203 196 183 206 192 218 217 225 223 218 177 239 239 227 233 228 245 242 251 255 267 301
224 230 245 217 230 229 217 219 225 226 211 200 182 197 193 190 194 192 199 195 183 202 203 186 198 203 201 195 197 214 227 224 231 248 252 250 232 241 264 260 255 279 279
225 229 170 203 221 230 204 203 232 219 214 202 199 206 203 199 192 196 187 196 198 198 204 202 193 202 205 210 218 230 229 229 241 234 242 244 253 248 256 251 258 271 241
213 207 210 218 222 209 218 226 203 212 211 204 198 202 202 191 189 186 204 213 200 205 207 211 204 211 211 229 211 232 235 238 252 225 263 245 246 256 249 254 282 267 267
211 222 218 224 208 200 210 212 216 207 228 219 205 205 201 206 205 209 206 207 201 199 195 212 218 216 228 231 237 231 246 261 244 249 253 252 244 251 247 272 257 275 260
233 222 210 208 216 211 213 228 212 215 222 236 221 210 203 202 221 197 215 216 216 221 215 221 227 233 229 233 238 248 261 252 245 248 245 246 247 243 268 256 262 269 261
236 216 215 216 220 213 226 204 214 216 213 229 209 210 221 238 195 211 220 224 216 224 228 222 235 242 228 233 264 266 252 245 249 245 244 240 246 271 260 262 257 269 268
224 225 224 228 226 216 224 211 212 213 231 226 211 226 223 230 228 223 228 242 225 239 238 240 206 241 239 261 256 252 244 246 245 237 245 261 263 262 265 261 264 267 281
239 225 228 218 221 235 229 224 210 214 223 238 235 226 218 227 226 200 227 242 241 224 224 221 219 226 241 261 250 249 245 243 232 242 262 257 254 261 260 262 265 273 284
254 252 243 237 240 236 228 225 227 226 232 229 241 235 235 237 240 243 229 240 246 252 248 263 263 249 258 247 250 249 232 244 255 257 252 261 256 256 253 266 266 276 306
265 266 265 263 258 238 244 271 246 259 263 228 223 220 275 313 268 262 262 265 267 265 261 254 252 253 251 249 249 233 246 257 256 245 253 245 252 257 256 263 272 289 290
265 239 249 262 267 267 271 286 249 261 273 243 237 285 305 280 242 264 263 255 254 254 246 245 249 253 240 241 250 257 248 239 251 250 240 254 254 260 260 263 301 279 331
258 264 266 271 278 256 254 276 271 270 282 275 278 291 281 271 254 259 258 251 250 249 247 245 247 247 242 247 250 245 244 252 247 242 243 252 261 263 272 267 316 294 305
262 265 269 265 258 263 264 264 271 270 276 265 292 293 272 259 251 252 252 250 250 246 242 241 238 245 251 236 236 248 250 243 248 252 250 254 258 278 279 340 326 308 296
267 266 265 263 265 268 266 267 271 299 292 277 274 272 267 253 249 241 243 245 241 239 235 245 247 242 247 248 250 243 247 252 248 252 259 262 267 256 336 316 298 284 284
263 271 272 270 265 261 290 298 287 276 266 263 266 274 273 250 249 249 250 251 249 246 246 253 251 245 241 240 246 252 241 251 255 265 257 302 272 324 312 293 279 281 290
299 303 299 294 284 280 268 266 256 262 260 259 255 255 267 262 259 250 249 250 250 252 242 240 239 244 246 248 251 249 253 262 266 288 296 292 306 293 277 280 284 260 253
337 302 281 280 276 265 263 258 262 261 257 254 257 260 256 252 252 252 252 253 249 253 251 255 255 251 246 249 254 266 270 287 269 320 297 292 287 287 274 252 254 253 252
302 326 320 273 270 269 267 262 263 259 257 253 253 254 253 253 253 253 252 254 254 252 250 249 254 257 282 284 273 270 305 296 283 282 291 281 256 252 255 255 254 254 258
284 293 299 295 295 291 288 282 276 264 277 274 264 261 262 259 259 269 277 284 282 294 290 289 277 266 272 304 293 280 285 288 279 264 253 252 255 256 257 258 262 266 269
318 311 277 280 285 291 290 289 285 283 291 282 279 276 278 275 273 266 269 260 265 279 287 290 298 292 286 283 278 271 265 257 251 255 256 258 261 263 267 271 278 286 295
Wind_Speed
84 82 90 82 83 82 83 82 81 68 60 43 64 61 63 75 81 86 83 56 83 80 84 75 77 76 77 80 81 78 88 92 87 95 79 69 100 92 100 100 102 103 91
77 80 77 77 81 76 63 61 56 53 47 64 76 71 71 77 86 60 77 87 88 82 82 85 66 81 60 83 74 86 89 94 77 94 93 99 102 103 101 98 100 98 85
56 62 76 72 73 67 57 57 52 48 58 74 77 77 80 78 86 75 83 90 90 85 96 66 75 86 88 82 89 88 89 88 98 100 102 105 107 104 101 100 99 94 93
40 45 57 64 62 51 56 58 54 60 67 60 73 83 82 84 79 89 84 92 69 97 96 90 62 83 83 91 92 92 105 102 98 99 100 104 106 102 99 96 101 90 90
43 40 41 52 55 56 52 52 52 68 76 67 81 85 81 84 82 75 89 70 85 73 95 71 82 94 98 64 95 109 106 106 102 100 106 105 100 101 87 98 93 90 89
39 43 45 50 54 52 45 47 55 69 80 76 78 80 78 88 89 98 99 92 96 104 107 78 108 93 99 94 95 96 101 71 108 104 106 105 97 107 105 98 89 86 67
39 41 47 47 49 53 51 50 56 57 75 85 75 89 88 85 91 91 100 101 81 106 103 84 99 104 99 97 94 101 105 107 102 97 96 105 92 103 93 91 88 77 60
58 49 54 49 57 61 52 57 59 64 75 85 93 97 98 100 93 95 84 99 104 105 108 107 90 104 106 97 100 107 101 105 110 100 101 102 96 92 90 88 85 70 69
63 56 58 60 68 57 66 69 65 71 85 91 89 96 98 88 77 77 104 107 98 106 110 113 103 105 102 110 99 108 105 107 94 98 82 91 90 87 87 84 67 67 60
67 72 70 74 59 57 70 69 67 64 82 93 97 97 88 103 104 107 109 111 90 90 87 113 118 104 113 114 103 105 102 85 90 85 84 83 85 86 83 77 74 65 60
76 80 67 62 76 71 77 81 72 77 72 87 99 102 95 94 106 81 110 113 116 119 110 111 113 115 102 101 106 100 81 80 81 80 83 83 84 83 80 74 66 66 61
87 77 79 79 81 78 87 66 78 84 80 82 80 85 96 104 79 105 110 116 107 112 109 106 113 107 98 102 87 73 78 79 78 79 81 82 85 77 76 72 67 73 70
77 80 82 92 86 72 93 79 83 81 84 87 90 99 100 104 106 101 105 108 92 114 112 110 75 108 109 86 76 75 78 78 77 78 84 83 79 76 74 74 73 77 86
98 82 89 74 83 96 97 94 75 82 97 107 104 103 94 102 108 72 108 114 111 93 98 99 86 101 104 75 78 78 77 74 74 83 82 79 77 76 78 78 79 88 87
96 104 102 99 105 99 95 96 102 100 102 91 96 99 103 107 108 112 105 111 111 108 99 73 71 94 79 79 79 77 71 79 83 79 78 80 76 80 75 88 86 89 82
74 83 94 101 102 86 93 97 109 108 104 85 78 84 85 53 89 92 87 73 59 61 66 74 77 77 78 79 78 70 79 80 79 76 81 73 80 88 84 84 96 98 75
76 57 82 82 89 91 95 79 81 79 84 85 82 65 47 43 90 60 61 65 64 66 72 75 78 77 74 77 80 79 78 73 81 81 72 90 86 91 86 86 91 83 49
72 73 73 76 72 87 80 69 69 73 66 66 57 51 47 46 58 60 61 66 68 71 75 74 75 77 78 79 80 78 79 87 83 80 80 90 96 91 105 91 78 78 46
78 74 67 66 68 70 69 71 69 64 65 57 52 48 48 54 56 62 68 72 72 70 71 73 73 79 82 71 74 87 88 83 88 90 90 92 93 106 93 69 53 48 49
68 69 70 69 72 67 59 63 66 52 45 47 48 49 53 56 61 64 69 72 71 73 71 79 82 79 83 86 89 83 87 91 89 92 96 97 105 79 66 53 53 55 55
61 68 71 67 63 60 56 49 45 45 49 51 49 50 58 60 63 68 72 76 78 80 81 86 85 84 82 79 86 92 82 90 95 102 91 93 97 62 56 55 57 58 59
53 50 56 56 53 46 46 45 47 46 49 51 52 51 54 65 69 72 76 78 81 86 80 78 79 84 88 89 92 91 94 101 91 93 88 82 63 60 61 61 60 58 60
30 44 50 53 50 50 50 51 51 53 55 56 59 60 61 64 67 71 74 77 78 82 82 86 88 89 86 90 94 99 96 93 93 72 67 66 65 64 62 63 65 66 68
32 32 41 50 50 53 55 55 55 56 58 60 62 63 65 67 69 72 75 79 80 81 83 84 91 94 89 93 88 95 72 70 70 70 68 65 66 68 70 71 72 74 76
33 35 38 42 46 52 54 55 58 60 61 65 69 69 70 71 74 76 79 80 84 79 83 84 86 87 90 71 70 71 70 68 67 68 70 72 74 75 77 78 80 83 85
28 38 36 39 43 47 49 50 53 54 60 65 67 68 65 65 67 67 70 72 74 74 74 75 71 69 68 68 68 69 71 72 73 75 77 79 81 82 85 88 91 93 95
Wind_Direction
266 251 266 256 254 268 264 268 268 261 266 266 261 248 257 264 272 277 274 274 284 285 285 283 285 280 285 285 286 289 289 291 295 292 299 297 298 300 301 303 304 307 310
245 237 246 246 251 254 253 247 252 245 237 244 242 260 258 261 266 281 282 282 282 284 286 285 284 285 292 287 294 288 290 294 292 291 296 297 298 300 301 304 306 311 310
269 257 240 244 246 250 249 245 240 221 237 243 243 255 251 272 264 272 274 275 277 281 279 286 285 286 289 287 288 291 293 295 295 294 296 298 298 300 303 308 311 312 316
239 248 245 243 241 238 240 240 236 224 224 238 247 254 258 255 263 264 273 274 282 274 278 283 290 288 290 289 289 292 292 292 294 294 297 298 298 299 305 310 311 314 316
236 237 247 240 236 239 233 234 231 221 222 250 241 246 252 254 266 273 270 279 277 286 277 284 288 288 289 293 292 289 289 291 292 292 297 296 298 301 304 308 312 315 317
234 229 226 227 228 232 235 235 241 226 225 233 246 240 256 251 261 260 265 272 271 270 277 288 280 286 284 284 286 289 289 292 296 295 296 298 299 302 306 309 313 315 314
240 236 231 232 234 236 228 225 231 228 223 231 260 241 246 258 254 260 258 262 281 267 270 283 279 280 284 289 290 289 288 290 296 298 298 297 299 303 306 309 312 314 309
232 228 261 252 232 230 244 234 229 223 225 232 237 239 243 247 257 256 272 262 265 268 269 273 283 280 280 286 287 291 292 294 295 296 297 297 301 303 305 309 313 313 310
238 252 245 231 231 242 239 235 233 234 229 235 243 244 246 256 270 277 258 258 270 267 267 268 273 279 282 287 290 293 294 296 293 295 294 297 300 302 305 309 310 310 318
243 236 233 228 247 252 255 255 252 243 235 233 240 245 256 249 252 253 257 260 271 276 281 273 274 278 282 287 288 291 294 291 290 293 296 297 300 303 304 307 304 317 310
228 233 249 248 241 248 254 237 256 255 250 244 241 247 257 262 252 271 260 262 265 266 272 276 277 281 283 286 291 290 289 287 290 293 295 298 301 301 303 303 303 317 311
223 239 243 243 240 248 241 261 257 259 263 252 253 256 258 258 264 264 265 263 268 271 273 277 280 283 285 291 287 282 282 287 289 294 297 299 299 301 301 305 305 318 319
241 238 237 234 235 245 239 252 258 261 250 253 264 260 262 266 262 267 270 269 270 269 273 278 278 285 286 284 280 281 286 289 294 295 296 297 297 301 306 308 314 316 320
230 243 244 249 248 238 239 246 259 261 263 262 256 259 266 265 265 271 270 271 267 274 277 280 283 286 285 275 281 283 288 291 292 294 294 295 298 305 308 311 315 318 318
237 238 240 240 239 242 247 252 253 256 260 261 257 259 264 265 267 269 270 272 271 274 277 274 272 278 274 279 283 285 289 293 293 292 294 301 304 307 308 312 313 317 308
243 245 246 246 251 249 253 255 255 259 258 261 261 264 275 268 264 265 267 268 266 265 264 268 270 273 275 279 283 286 291 292 294 295 301 302 306 306 308 310 312 310 307
245 251 251 254 257 258 263 265 259 266 266 260 258 275 263 252 261 255 258 260 263 264 266 268 271 276 280 283 287 290 290 292 297 299 301 304 304 305 307 307 305 308 288
245 249 253 258 264 262 267 267 272 275 277 275 273 273 246 246 254 258 258 262 263 264 268 274 277 280 282 286 288 290 294 296 297 300 301 300 303 305 307 309 301 303 281
245 250 253 254 258 263 265 270 273 274 278 266 267 256 242 249 254 256 258 262 266 270 273 275 278 283 284 287 289 291 293 296 297 297 298 298 302 302 302 297 289 285 283
243 246 250 255 259 267 266 269 271 266 261 257 253 254 243 247 252 258 261 264 270 272 277 276 277 282 283 286 287 290 291 292 294 294 296 298 299 301 295 288 286 287 287
255 255 257 260 263 261 265 259 255 251 250 254 255 251 245 246 250 255 258 260 264 268 273 273 276 282 284 288 288 287 291 292 294 296 297 292 296 292 288 286 288 288 287
247 248 251 252 255 253 255 255 260 256 256 258 260 257 253 250 251 257 261 264 267 267 275 279 281 281 282 284 285 288 289 289 292 292 292 293 288 286 287 288 286 287 287
256 242 243 245 246 249 251 256 255 256 257 259 260 258 257 256 258 260 262 263 269 269 273 273 274 279 284 284 284 286 287 285 288 287 286 286 287 287 287 288 288 287 287
259 251 238 249 252 253 253 256 255 256 258 260 262 262 264 265 265 266 268 270 272 274 277 278 277 278 281 283 285 284 288 282 283 284 286 286 286 287 288 287 288 288 289
263 259 250 249 248 250 254 257 259 258 260 259 261 264 266 266 267 267 268 270 272 274 273 273 275 279 282 284 282 282 284 284 284 284 286 287 288 288 288 289 289 289 290
267 251 255 256 256 255 254 257 258 259 259 262 264 265 267 270 270 272 273 276 278 276 275 275 278 280 280 281 281 281 283 284 286 286 287 288 288 289 289 290 290 290 289